Crosby, ND

12:56 AM CST on November 17, 2019 (GMT -0600)
Crosby

Weather History for KD50 - September, 2019

Change the Weather History Date:

Tuesday, September 24, 2019

  Actual Average (WUND) Record (WUND)
Temperature  
Mean Temperature 57 °F -  
Max Temperature 66 °F - - (-1)
Min Temperature 48 °F - - (-1)
Degree Days  
Heating Degree Days 8    
Growing Degree Days 7 (Base 50)    
Moisture  
Dew Point 45 °F    
Average Humidity 69    
Maximum Humidity 100    
Minimum Humidity 42    
Precipitation  
Precipitation 0.00 in - - ()
Sea Level Pressure  
Sea Level Pressure 29.71 in    
Wind  
Wind Speed 10 mph (West)    
Max Wind Speed 26 mph    
Max Gust Speed 34 mph    
Visibility 10 miles    
Events      
Averages and records for this station are not official NWS values.
T = Trace of Precipitation, MM = Missing Value Source: NWS Daily Summary

Daily Weather History Graph

Daily Weather History Graph

Search for Another Location

Airport or City:

Astronomy

Sep. 24, 2019 Rise Set
Actual Time 7:42 AM CDT 7:47 PM CDT
Civil Twilight 7:10 AM CDT 8:18 PM CDT
Nautical Twilight 6:33 AM CDT 8:55 PM CDT
Astronomical Twilight 5:55 AM CDT 9:33 PM CDT
Moon 1:58 AM CDT (9/24) 6:03 PM CDT (9/24)
Length of Visible Light 13h 07m
Length of Day
12h 04m
Waning Crescent, 23% of the Moon is Illuminated
Sep 24
Waning Crescent
Sep 28
New
Oct 5
First Quarter
Oct 13
Full
Oct 21
Last Quarter

Hourly Weather History & Observations

Time (CDT) Temp. Dew Point Humidity Pressure Visibility Wind Dir Wind Speed Gust Speed Precip Events Conditions
12:35 AM 55.4 °F 51.8 °F 88% 29.72 in 10.0 mi Calm Calm - N/A   Scattered Clouds
12:55 AM 55.4 °F 51.8 °F 88% 29.71 in 10.0 mi Calm Calm - N/A   Scattered Clouds
1:15 AM 55.4 °F 53.6 °F 94% 29.71 in 10.0 mi SW 4.6 mph - N/A   Partly Cloudy
1:35 AM 55.4 °F 53.6 °F 94% 29.70 in 10.0 mi South 6.9 mph - N/A   Scattered Clouds
1:55 AM 55.4 °F 53.6 °F 94% 29.70 in 10.0 mi Calm Calm - N/A   Mostly Cloudy
2:15 AM 55.4 °F 53.6 °F 94% 29.71 in 10.0 mi WNW 9.2 mph - N/A   Overcast
2:35 AM 55.4 °F 53.6 °F 94% 29.68 in 10.0 mi SE 4.6 mph - N/A   Overcast
2:55 AM 57.2 °F 53.6 °F 88% 29.68 in 10.0 mi SSW 5.8 mph - N/A   Overcast
3:15 AM 55.4 °F 53.6 °F 94% 29.69 in 10.0 mi WSW 3.5 mph - N/A   Mostly Cloudy
3:35 AM 57.2 °F 53.6 °F 88% 29.70 in 10.0 mi NNW 15.0 mph 24.2 mph N/A   Mostly Cloudy
5:55 AM 51.8 °F 51.8 °F 100% 29.69 in 10.0 mi SSE 6.9 mph - N/A   Overcast
6:15 AM 51.8 °F 51.8 °F 100% 29.69 in 10.0 mi SSW 3.5 mph - N/A   Overcast
6:35 AM - - N/A% 29.69 in 10.0 mi SW 9.2 mph - N/A   Mostly Cloudy
6:55 AM - - N/A% 29.69 in 10.0 mi SSW 10.4 mph - N/A   Scattered Clouds
7:15 AM 50.0 °F 50.0 °F 100% 29.69 in 10.0 mi SSW 9.2 mph - N/A   Clear
7:35 AM 50.0 °F 50.0 °F 100% 29.69 in 10.0 mi SSW 9.2 mph - N/A   Clear
7:55 AM 50.0 °F 50.0 °F 100% 29.69 in 10.0 mi SSW 9.2 mph - N/A   Clear
8:15 AM 50.0 °F 50.0 °F 100% 29.69 in 10.0 mi SW 11.5 mph - N/A   Clear
8:35 AM 51.8 °F 51.8 °F 100% 29.68 in 10.0 mi SSW 12.7 mph - N/A   Clear
8:55 AM 53.6 °F 53.6 °F 100% 29.69 in 10.0 mi SW 12.7 mph - N/A   Clear
9:15 AM 55.4 °F 50.0 °F 82% 29.68 in 10.0 mi SW 13.8 mph - N/A   Clear
9:35 AM 55.4 °F 48.2 °F 77% 29.68 in 10.0 mi WSW 11.5 mph - N/A   Clear
9:55 AM 55.4 °F 46.4 °F 72% 29.69 in 10.0 mi West 13.8 mph - N/A   Partly Cloudy
10:15 AM 57.2 °F 46.4 °F 67% 29.68 in 10.0 mi West 12.7 mph 18.4 mph N/A   Partly Cloudy
10:35 AM 57.2 °F 46.4 °F 67% 29.69 in 10.0 mi West 15.0 mph 24.2 mph N/A   Clear
10:55 AM 59.0 °F 44.6 °F 59% 29.69 in 10.0 mi West 19.6 mph - N/A   Clear
11:15 AM 60.8 °F 44.6 °F 55% 29.68 in 10.0 mi WNW 21.9 mph - N/A   Partly Cloudy
11:35 AM 59.0 °F 44.6 °F 59% 29.68 in 10.0 mi WNW 16.1 mph 23.0 mph N/A   Clear
11:55 AM 60.8 °F 44.6 °F 55% 29.68 in 10.0 mi West 16.1 mph 23.0 mph N/A   Clear
12:15 PM 62.6 °F 46.4 °F 55% 29.68 in 10.0 mi WNW 19.6 mph 26.5 mph N/A   Scattered Clouds
12:35 PM 62.6 °F 44.6 °F 52% 29.68 in 10.0 mi WNW 17.3 mph 26.5 mph N/A   Scattered Clouds
12:55 PM 62.6 °F 46.4 °F 55% 29.68 in 10.0 mi WNW 13.8 mph 20.7 mph N/A   Partly Cloudy
1:15 PM 64.4 °F 46.4 °F 52% 29.67 in 10.0 mi NW 20.7 mph - N/A   Partly Cloudy
1:35 PM 64.4 °F 46.4 °F 52% 29.68 in 10.0 mi NW 18.4 mph 24.2 mph N/A   Partly Cloudy
1:55 PM 62.6 °F 46.4 °F 55% 29.69 in 10.0 mi WNW 19.6 mph 29.9 mph N/A   Partly Cloudy
2:15 PM 62.6 °F 44.6 °F 52% 29.69 in 10.0 mi WNW 23.0 mph 33.4 mph N/A   Scattered Clouds
2:35 PM 62.6 °F 44.6 °F 52% 29.69 in 10.0 mi NW 25.3 mph 34.5 mph N/A   Scattered Clouds
2:55 PM 66.2 °F 42.8 °F 43% 29.69 in 10.0 mi NW 26.5 mph 33.4 mph N/A   Partly Cloudy
3:15 PM 60.8 °F 42.8 °F 52% 29.70 in 10.0 mi NW 25.3 mph 33.4 mph N/A   Scattered Clouds
3:35 PM 60.8 °F 41.0 °F 48% 29.70 in 10.0 mi NW 21.9 mph 32.2 mph N/A   Partly Cloudy
3:55 PM 59.0 °F 39.2 °F 48% 29.71 in 9.0 mi WNW 23.0 mph 29.9 mph N/A   Mostly Cloudy
4:15 PM 59.0 °F 39.2 °F 48% 29.71 in 10.0 mi WNW 13.8 mph - N/A   Mostly Cloudy
4:35 PM 59.0 °F 42.8 °F 55% 29.71 in 10.0 mi WNW 10.4 mph 20.7 mph N/A   Scattered Clouds
4:55 PM 60.8 °F 41.0 °F 48% 29.71 in 10.0 mi NW 16.1 mph 23.0 mph N/A   Mostly Cloudy
5:15 PM 62.6 °F 42.8 °F 48% 29.70 in 10.0 mi WNW 20.7 mph - N/A   Overcast
5:35 PM 60.8 °F 41.0 °F 48% 29.71 in 10.0 mi WNW 19.6 mph 27.6 mph N/A   Scattered Clouds
5:55 PM 60.8 °F 37.4 °F 42% 29.71 in 10.0 mi WNW 18.4 mph 27.6 mph N/A   Clear
6:15 PM 60.8 °F 37.4 °F 42% 29.71 in 10.0 mi WNW 17.3 mph 25.3 mph N/A   Clear
6:35 PM 59.0 °F 37.4 °F 45% 29.72 in 10.0 mi WNW 16.1 mph 23.0 mph N/A   Clear
6:55 PM 59.0 °F 37.4 °F 45% 29.72 in 10.0 mi WNW 13.8 mph - N/A   Clear
7:15 PM 57.2 °F 39.2 °F 51% 29.72 in 10.0 mi WNW 11.5 mph - N/A   Clear
7:35 PM 57.2 °F 39.2 °F 51% 29.72 in 10.0 mi West 9.2 mph - N/A   Clear
7:55 PM 53.6 °F 39.2 °F 58% 29.71 in 9.0 mi West 8.1 mph - N/A   Clear
8:15 PM 51.8 °F 41.0 °F 67% 29.72 in 10.0 mi WSW 8.1 mph - N/A   Mostly Cloudy
8:35 PM 53.6 °F 41.0 °F 62% 29.74 in 10.0 mi West 6.9 mph - N/A   Overcast
8:55 PM 51.8 °F 41.0 °F 67% 29.74 in 10.0 mi WNW 9.2 mph - N/A   Mostly Cloudy
9:15 PM 50.0 °F 41.0 °F 71% 29.74 in 10.0 mi WSW 8.1 mph - N/A   Mostly Cloudy
9:35 PM 50.0 °F 41.0 °F 71% 29.75 in 10.0 mi West 9.2 mph - N/A   Scattered Clouds
9:55 PM 50.0 °F 41.0 °F 71% 29.75 in 10.0 mi West 8.1 mph - N/A   Partly Cloudy
10:15 PM 50.0 °F 41.0 °F 71% 29.75 in 10.0 mi WNW 15.0 mph - N/A   Clear
10:35 PM 48.2 °F 41.0 °F 76% 29.76 in 10.0 mi West 9.2 mph - N/A   Clear
10:55 PM 48.2 °F 41.0 °F 76% 29.76 in 10.0 mi West 10.4 mph - N/A   Partly Cloudy
11:15 PM 48.2 °F 41.0 °F 76% 29.76 in 10.0 mi West 10.4 mph - N/A   Partly Cloudy
11:35 PM 48.2 °F 39.2 °F 71% 29.76 in 10.0 mi West 12.7 mph - N/A   Scattered Clouds
11:55 PM 48.2 °F 39.2 °F 71% 29.76 in 10.0 mi West 12.7 mph - N/A   Overcast